This demonstration page uses our WeatherBlox Daily Observations layout. Learn more.

Left ArrowRight Arrow

Hourly Observations for June 16, 2017

Temp ( °F °C ) Dew Point ( °F °C ) Humidity (%) Winds ( mph kmh ) Pressure ( in mb ) Visibility ( mi km ) Precip ( " mm )
12:07 am 00:07 Clear 70 21 66 19 88 88 N N/A 29.85 1011 10 16 N/A
12:27 am 00:27 Clear 70 21 66 19 88 88 N N/A 29.85 1011 10 16 N/A
12:46 am 00:46 Clear 68 20 66 19 94 94 N N/A 29.85 1011 10 16 N/A
1:07 am 01:07 Clear 68 20 66 19 94 94 N N/A 29.85 1011 10 16 N/A
1:26 am 01:26 Clear 68 20 66 19 94 94 N N/A 29.85 1011 10 16 N/A
1:46 am 01:46 Clear 68 20 66 19 94 94 N N/A 29.85 1011 10 16 N/A
2:07 am 02:07 Clear 68 20 66 19 94 94 N N/A 29.85 1011 10 16 N/A
2:26 am 02:26 Clear 68 20 66 19 94 94 N N/A 29.85 1011 10 16 N/A
2:47 am 02:47 Clear 66 19 64 18 94 94 WSW 5 7 29.91 1013 10 16 N/A
3:07 am 03:07 Clear 66 19 66 19 100 100 WSW 3 6 29.91 1013 10 16 N/A
3:26 am 03:26 Clear 66 19 66 19 100 100 N N/A 29.88 1012 10 16 N/A
3:47 am 03:47 Clear 66 19 66 19 100 100 N N/A 29.88 1012 10 16 N/A
4:06 am 04:06 Clear 66 19 66 19 100 100 N N/A 29.88 1012 10 16 N/A
4:27 am 04:27 Clear 66 19 64 18 94 94 SSW 3 6 29.88 1012 7 11 N/A
4:47 am 04:47 Clear 66 19 66 19 100 100 WSW 3 6 29.88 1012 7 11 N/A
5:06 am 05:06 Clear 64 18 64 18 100 100 W 6 9 29.88 1012 7 11 N/A
5:26 am 05:26 Clear 64 18 63 17 94 94 W 6 9 29.91 1013 5 8 N/A
5:46 am 05:46 Clear 64 18 64 18 100 100 W 5 7 29.91 1013 5 8 N/A
6:07 am 06:07 Clear 64 18 64 18 100 100 WSW 3 6 29.88 1012 4 6 N/A
6:26 am 06:26 Sunny 64 18 64 18 100 100 N N/A 29.88 1012 4 6 N/A
6:46 am 06:46 Mostly Cloudy 64 18 63 17 94 94 N N/A 29.91 1013 1 1 N/A
7:07 am 07:07 Sunny 64 18 64 18 100 100 N N/A 29.91 1013 2 3 N/A
7:26 am 07:26 Sunny 66 19 66 19 100 100 S 5 7 29.91 1013 5 8 N/A
7:47 am 07:47 Sunny 66 19 66 19 100 100 SSE 6 9 29.91 1013 5 8 N/A
8:07 am 08:07 Sunny 70 21 68 20 94 94 S 3 6 29.88 1012 7 11 N/A
8:26 am 08:26 Sunny 70 21 68 20 94 94 N N/A 29.88 1012 7 11 N/A
8:47 am 08:47 Sunny 73 23 68 20 83 83 W 5 7 29.88 1012 10 16 N/A
9:06 am 09:06 Sunny 73 23 68 20 83 83 W 3 6 29.88 1012 10 16 N/A
9:26 am 09:26 Sunny 75 24 66 19 74 74 N N/A 29.88 1012 10 16 N/A
9:47 am 09:47 Sunny 77 25 66 19 69 69 W 5 7 29.88 1012 10 16 N/A
10:06 am 10:06 Sunny 77 25 68 20 74 74 W 3 6 29.88 1012 10 16 N/A
10:27 am 10:27 Sunny 79 26 66 19 65 65 W 5 7 29.88 1012 10 16 N/A
10:47 am 10:47 Sunny 81 27 66 19 62 62 W 3 6 29.88 1012 10 16 N/A
11:06 am 11:06 Sunny 81 27 64 18 58 58 WNW 6 9 29.88 1012 10 16 N/A
11:27 am 11:27 Sunny 82 28 63 17 51 51 N N/A 29.85 1011 10 16 N/A
11:47 am 11:47 Sunny 82 28 63 17 51 51 N N/A 29.88 1012 10 16 N/A
12:06 pm 12:06 Sunny 82 28 64 18 55 55 WNW 3 6 29.85 1011 10 16 N/A
12:27 pm 12:27 Sunny 84 29 64 18 51 51 N N/A 29.85 1011 10 16 N/A
12:46 pm 12:46 Sunny 84 29 64 18 51 51 N N/A 29.85 1011 10 16 N/A
1:07 pm 13:07 Sunny 84 29 61 16 45 45 N N/A 29.85 1011 10 16 N/A
1:27 pm 13:27 Sunny 84 29 61 16 45 45 S 3 6 29.85 1011 10 16 N/A
1:46 pm 13:46 Sunny 84 29 63 17 48 48 S 6 9 29.85 1011 10 16 N/A
2:07 pm 14:07 Sunny 86 30 63 17 46 46 SSE 9 15 29.83 1010 10 16 N/A
2:27 pm 14:27 Sunny 86 30 66 19 52 52 S 8 13 29.80 1009 10 16 N/A
2:46 pm 14:46 Sunny 86 30 64 18 49 49 S 7 11 29.80 1009 10 16 N/A
3:07 pm 15:07 Sunny 86 30 64 18 49 49 SSW 12 19 29.80 1009 10 16 N/A
3:26 pm 15:26 Sunny 86 30 68 20 55 55 SSE 7 11 29.77 1008 10 16 N/A
3:46 pm 15:46 Sunny 88 31 64 18 46 46 S 9 15 29.77 1008 10 16 N/A
4:07 pm 16:07 Sunny 86 30 63 17 46 46 S 10 17 29.77 1008 10 16 N/A
4:26 pm 16:26 Sunny 86 30 64 18 49 49 SSW 10 17 29.77 1008 10 16 N/A
4:47 pm 16:47 Sunny 86 30 63 17 46 46 SSW 7 11 29.77 1008 10 16 N/A
5:06 pm 17:06 Sunny 86 30 63 17 46 46 SSW 12 19 29.77 1008 10 16 N/A
5:27 pm 17:27 Sunny 86 30 63 17 46 46 S 9 15 29.77 1008 10 16 N/A
5:47 pm 17:47 Sunny 86 30 63 17 46 46 SSW 10 17 29.77 1008 10 16 N/A
6:06 pm 18:06 Sunny 86 30 61 16 43 43 SSW 10 17 29.77 1008 10 16 N/A
6:27 pm 18:27 Sunny 86 30 61 16 43 43 SSW 9 15 29.77 1008 10 16 N/A
6:47 pm 18:47 Sunny 84 29 63 17 48 48 S 9 15 29.77 1008 10 16 N/A
7:06 pm 19:06 Sunny 84 29 64 18 51 51 SSW 7 11 29.77 1008 10 16 N/A
7:27 pm 19:27 Sunny 82 28 64 18 55 55 SSW 8 13 29.80 1009 10 16 N/A
7:46 pm 19:46 Sunny 82 28 64 18 55 55 SSW 8 13 29.80 1009 10 16 N/A
8:06 pm 20:06 Sunny 82 28 64 18 55 55 S 6 9 29.80 1009 10 16 N/A
8:27 pm 20:27 Sunny 81 27 63 17 54 54 S 6 9 29.80 1009 10 16 N/A
8:46 pm 20:46 Sunny 81 27 64 18 58 58 SSW 5 7 29.80 1009 10 16 N/A
9:07 pm 21:07 Sunny 79 26 64 18 61 61 SSW 3 6 29.80 1009 10 16 N/A
9:27 pm 21:27 Clear 79 26 64 18 61 61 S 3 6 29.80 1009 10 16 N/A
9:46 pm 21:46 Clear 77 25 64 18 65 65 S 3 6 29.80 1009 10 16 N/A
10:07 pm 22:07 Clear 77 25 66 19 69 69 S 5 7 29.80 1009 10 16 N/A
10:26 pm 22:26 Clear 77 25 66 19 69 69 S 3 6 29.80 1009 10 16 N/A
10:47 pm 22:47 Clear 75 24 64 18 69 69 S 5 7 29.77 1008 10 16 N/A
11:07 pm 23:07 Clear 75 24 64 18 69 69 SSW 5 7 29.80 1009 10 16 N/A
11:26 pm 23:26 Clear 75 24 64 18 69 69 SSW 7 11 29.80 1009 10 16 N/A
11:47 pm 23:47 Clear 75 24 66 19 74 74 SSW 6 9 29.80 1009 10 16 N/A

Powered by AerisWeather